• MPC Preparation (Info)

  • MPEC 2019-Q142 : 2019 QV5

    The following Minor Planet Electronic Circular may be linked-to from your own Web pages, but must not otherwise be redistributed electronically.

    A form allowing access to any MPEC is at the bottom of this page.


    Read MPEC 2019-Q141 Read MPEC 2019-Q143


    M.P.E.C. 2019-Q142                                Issued 2019 August 30, 20:04 UT  
    
         The Minor Planet Electronic Circulars contain information on unusual
             minor planets and routine data on comets.  They are published
        on behalf of Division F of the International Astronomical Union by the
              Minor Planet Center, Smithsonian Astrophysical Observatory,
                              Cambridge, MA 02138, U.S.A.
    
                 Prepared using the Tamkin Foundation Computer Network
    
                                  MPC@CFA.HARVARD.EDU
                URL https://www.minorplanetcenter.net/    ISSN 1523-6714
    
                                    2019 QV5                                 
    
    
    Observations:
         K19Q05V  C2019 07 28.58377901 27 58.469-01 44 46.62         22.0 GVEQ142F52
         K19Q05V  C2019 07 28.60332501 28 01.111-01 44 38.63         22.2 GVEQ142F52
         K19Q05V  C2019 07 28.61306601 28 02.397-01 44 34.76         22.2 GVEQ142F52
         K19Q05V* C2019 08 27.57630 02 41 10.833+01 12 14.97         21.5 wUEQ142F52
         K19Q05V  C2019 08 27.58804 02 41 12.613+01 12 18.34         21.2 wUEQ142F52
         K19Q05V  C2019 08 27.59977 02 41 14.377+01 12 21.87         21.2 wUEQ142F52
         K19Q05V KC2019 08 28.38094502 43 15.80 +01 16 06.9          21.1 VuEQ142H21
         K19Q05V KC2019 08 28.38404602 43 16.29 +01 16 08.2          21.5 VuEQ142H21
         K19Q05V KC2019 08 28.38830902 43 16.98 +01 16 09.5          21.1 VuEQ142H21
         K19Q05V ^C2019 08 28.61874002 43 52.646+01 17 20.65         21.76GVEQ142568
         K19Q05V ^C2019 08 28.61968902 43 52.789+01 17 20.95         21.69GVEQ142568
         K19Q05V ^C2019 08 28.62065302 43 52.931+01 17 21.19         21.68GVEQ142568
         K19Q05V KC2019 08 29.41837 02 45 57.44 +01 21 08.3          20.9 GUEQ142H36
         K19Q05V KC2019 08 29.42895 02 45 58.99 +01 21 10.1          21.3 GUEQ142H36
         K19Q05V KC2019 08 30.05858902 47 37.70 +01 24 11.4          21.1 GVEQ142L01
         K19Q05V pC2019 08 30.06568702 47 38.77 +01 24 14.2          21.4 GVEQ142L01
    
    Observer details:
    568 Mauna Kea.  Observers R. Wainscoat, H. Januszewski, A. Petric.  Measurers 
       R. Weryk, R. Wainscoat.  3.6-m Canada-France-Hawaii Telescope + CCD.
    F52 Pan-STARRS 2, Haleakala.  Observers J. Bulger, K. Chambers, T. Dukes, T. 
       Lowe, E. Magnier, A. Schultz, M. Willman.  Measurers S. Chastel, M. Huber, 
       Y. Ramanjooloo, R. Wainscoat, R. Weryk, K. Chambers, T. de Boer, L. Denneau, 
       J. Fairlamb, H. Flewelling, C.-C. Lin, E. Magnier.  1.8-m Ritchey-Chretien + 
       CCD.
    H21 Astronomical Research Observatory, Westfield.  Observer R. Holmes.  
        Measurers S. Foglia, L. Buzzi, T. Linder, R. Holmes.  0.76-m f/3.0 
       astrograph + CCD.
    H36 Sandlot Observatory, Scranton.  Observer G. Hug.  0.56-m reflector + CCD.
    L01 Visnjan Observatory, Tican.  Observers K. Korlevic, E. Pettarin, F. 
       Valentine.  Measurer E. Pettarin.  1.0-m f/2.9 reflector + CCD.
    
    Orbital elements:
    2019 QV5                                                 Earth MOID = 0.2733 AU
    Epoch 2019 Apr. 27.0 TT = JDT 2458600.5                 Veres
    M 305.76110              (2000.0)            P               Q
    n   0.27640932     Peri.  327.81902     +0.56212462     -0.81888201
    a   2.3340004      Node    87.72862     +0.78127095     +0.47975806
    e   0.4630574      Incl.    6.66462     +0.27135146     +0.31506262
    P   3.57           H   20.0           G   0.15           U   8
    Residuals in seconds of arc
    190728 F52  0.1+  0.1+    190828 H21  0.5-  0.5-    190829 H36  0.0   0.2-
    190728 F52  0.2+  0.0     190828 H21  0.2-  0.1-    190829 H36  0.9-  1.4-
    190728 F52  0.2-  0.1-    190828 H21  0.4+  0.0     190830 L01  0.4+  0.2+
    190827 F52  0.0   0.2+    190828 568  0.2+  0.2+    190830 L01  0.2+  1.0+
    190827 F52  0.2+  0.1+    190828 568  0.2+  0.2+
    190827 F52  0.2+  0.2+    190828 568  0.1+  0.2+
    
    2019 QV5                                                                        
    Epoch 2019 Apr. 27.0 TT = JDT 2458600.5                 Veres                   
    M 305.76110              (2000.0)            P               Q                  
    n   0.27640932     Peri.  327.81902     +0.56212462     -0.81888201             
    a   2.3340004      Node    87.72862     +0.78127095     +0.47975806             
    e   0.4630574      Incl.    6.66462     +0.27135146     +0.31506262             
    P   3.57           H   20.0           G   0.15           U   8                  
    From 16 observations 2019 July 28-Aug. 30, mean residual 0".41.                 
                                                                                    
    Ephemeris:
    2007 AV2                 a,e,i = 1.44, 0.47, 12                  q = 1.2532
    Date    TT    R. A. (2000) Decl.     Delta      r    Elong.  Phase     V
    2019 07 31    23 45 58.6 +24 09 00   0.4038  1.2543   117.6    45.9    21.4
    ...
    2019 08 15    23 01 29.5 +24 41 28   0.4410  1.3642   135.8    31.2    21.3
    ...
    2019 08 23    22 38 16.3 +23 31 56   0.4720  1.4202   143.9    24.8    21.4
    ...
    2019 08 29    22 22 41.2 +22 08 36   0.5020  1.4610   148.2    21.4    21.5
    2019 08 30    22 20 17.9 +21 52 44   0.5076  1.4676   148.7    20.9    21.5
    2019 08 31    22 17 58.5 +21 36 24   0.5134  1.4743   149.2    20.5    21.5
    ...
    2019 09 06    22 05 31.4 +19 51 14   0.5519  1.5134   150.6    19.1    21.7
    ...
    2019 09 14    21 53 03.3 +17 22 34   0.6132  1.5637   148.9    19.4    22.0
    ...
    2019 09 29    21 41 32.0 +13 02 59   0.7567  1.6519   139.4    23.2    22.7
    
    A. U. Tomatic                (C) Copyright 2019 MPC           M.P.E.C. 2019-Q142
    


    Read MPEC 2019-Q141 Read MPEC 2019-Q143


    MPEC number:

    Enter an MPEC number in one of the following forms:

    • 1997-B01 (the full form)
    • J97B01 (the packed version of the full form)
    • B01 (the abbreviated form)